Location: Alma
(38.7220°N, 88.9090°W)
Time: 22:38:12
(UTC-06:00)

Vanguard 2 - Pass Details

Date: 12 November 2019
Orbit: 553 x 2938 km, 32.9° (Epoch: 12 December)

Event Time Altitude Azimuth Distance (km) Brightness Sun altitude
Rises 12:52:04 0° 260° (W) 3,126 11.0 31.0°
Reaches altitude 10° 12:54:48 10° 252° (WSW) 2,015 10.3 30.8°
Maximum altitude 12:58:50 37° 184° (S) 876 9.8 30.6°
Drops below altitude 10° 13:02:30 10° 115° (ESE) 1,828 9.6 30.3°
Sets 13:04:52 0° 107° (ESE) 2,789 10.4 30.1°
